Date,TemperatureHighF,TemperatureAvgF,TemperatureLowF,DewpointHighF,DewpointAvgF,DewpointLowF,HumidityHigh,HumidityAvg,HumidityLow,PressureMaxIn,PressureMinIn,WindSpeedMaxMPH,WindSpeedAvgMPH,GustSpeedMaxMPH,PrecipitationSumIn
2013-2-1,16.1,3.2,-5.7,12.0,-3.2,-11.0,84,75,65,30.49,30.17,19,6,19,0.00
2013-2-2,25.0,17.4,14.3,20.0,12.4,9.0,90,81,73,30.22,30.06,15,4,22,0.00
2013-2-3,24.2,19.7,14.3,20.0,14.8,9.0,92,81,70,30.19,29.95,16,5,24,0.00
2013-2-4,25.7,21.3,14.1,21.0,16.7,11.0,89,82,76,30.05,29.86,12,4,18,0.00
2013-2-5,36.6,27.4,15.7,30.0,23.0,13.0,89,83,74,30.17,29.86,15,6,26,0.00
2013-2-6,40.5,30.1,15.7,35.0,26.0,14.0,93,85,71,30.22,30.03,10,3,15,0.00
2013-2-7,37.3,35.0,29.9,36.0,33.3,27.0,96,93,85,30.17,29.93,16,4,20,0.28
2013-2-8,30.2,28.8,27.5,27.0,25.4,24.0,91,87,82,30.40,30.17,14,5,19,0.00
2013-2-9,32.3,29.3,26.6,29.0,26.4,24.0,93,89,84,30.37,30.01,16,7,25,0.00
2013-2-10,47.9,38.2,30.7,47.0,36.1,29.0,98,92,69,30.01,29.34,22,9,35,0.43
2013-2-11,34.2,30.0,25.9,29.0,23.5,20.0,85,77,72,30.14,29.53,36,16,41,0.01
2013-2-12,39.4,30.5,23.9,27.0,23.2,18.0,87,75,60,30.17,29.91,15,5,23,0.00
2013-2-13,44.0,35.8,27.3,33.0,29.4,25.0,91,78,65,29.91,29.68,13,4,15,0.00
2013-2-14,41.8,35.5,24.0,33.0,29.2,14.0,92,78,62,30.13,29.68,17,9,27,0.00
2013-2-15,25.9,22.0,16.4,16.0,12.6,9.0,78,68,54,30.33,30.14,16,8,23,0.00
2013-2-16,24.5,17.7,12.2,16.0,11.5,7.0,85,77,67,30.33,30.22,9,4,16,0.00
2013-2-17,36.6,25.9,13.7,25.0,18.2,10.0,87,74,58,30.23,29.82,22,7,24,0.00
2013-2-18,48.6,33.1,14.8,36.0,27.0,7.0,91,79,61,29.84,29.56,22,10,33,0.01
2013-2-19,18.2,10.9,4.6,7.0,2.8,-2.0,77,70,61,30.40,29.84,27,13,33,0.00
2013-2-20,26.3,13.8,2.8,14.0,5.3,-3.0,80,70,53,30.51,30.41,10,4,14,0.00
2013-2-21,25.7,21.0,13.7,24.0,16.8,9.0,94,83,75,30.45,29.96,19,9,29,0.00
2013-2-22,30.3,26.3,23.4,29.0,23.8,20.0,94,90,84,30.00,29.83,17,7,20,0.05
2013-2-23,28.9,23.1,15.4,21.0,17.8,12.0,88,80,70,30.04,29.97,13,5,18,0.00
2013-2-24,35.6,22.1,8.6,26.0,17.3,6.0,91,82,64,30.17,30.04,8,1,10,0.00
2013-2-25,39.5,30.9,21.8,31.0,26.2,19.0,91,83,68,30.17,29.96,11,3,14,0.00
2013-2-26,35.3,32.6,30.3,31.0,28.8,27.0,96,86,75,29.95,29.67,15,8,24,0.00
2013-2-27,32.6,31.0,29.4,31.0,29.8,28.0,96,95,92,29.91,29.73,13,8,21,0.08
2013-2-28,35.0,30.8,27.2,30.0,27.6,25.0,92,88,77,30.16,29.92,15,7,18,0.01